Change the Weather History Date:

Wednesday, April 10, 2013

  Actual Average Record
Temperature  
Mean Temperature 83 °F -  
Max Temperature 92 °F - - ()
Min Temperature 74 °F - - ()
Cooling Degree Days 18    
Growing Degree Days 33 (Base 50)    
Moisture  
Dew Point 75 °F    
Average Humidity 76    
Maximum Humidity 94    
Minimum Humidity 49    
Precipitation  
Precipitation 0.00 in - - ()
Sea Level Pressure  
Sea Level Pressure 29.88 in    
Wind  
Wind Speed 3 mph ()    
Max Wind Speed 8 mph    
Max Gust Speed -    
Visibility 7.1 miles    
Events Rain , Thunderstorm    
T = Trace of Precipitation, MM = Missing Value Source: Averaged Metar Reports

Daily Weather History Graph

Daily Weather History Graph

Search for Another Location

Airport or City:

Trip Planner

Search our weather history database for the weather conditions in past years. The results will help you decide how hot, cold, wet, or windy it might be!

Date:

Astronomy

Apr. 10, 2013 Rise Set
Actual Time 5:47 AM AMT 5:43 PM AMT
Civil Twilight 5:26 AM AMT 6:04 PM AMT
Nautical Twilight 5:02 AM AMT 6:28 PM AMT
Astronomical Twilight 4:37 AM AMT 6:53 PM AMT
Moon 5:49 AM AMT (4/10) 5:56 PM AMT (4/10)
Length of Visible Light 12h 37m
Length of Day
11h 55m
New Moon, 0% of the Moon is Illuminated
Apr 10
New Moon
Apr 18
First Quarter
Apr 25
Full
May 2
Last Quarter
May 9
New

Hourly Weather History & Observations

Time (AMT) Temp. Heat Index Dew Point Humidity Pressure Visibility Wind Dir Wind Speed Gust Speed Precip Events Conditions
12:00 AM 75.2 °F - 73.4 °F 94% 29.89 in - NW 3.5 mph - N/A   Clear
6:15 AM 75.2 °F - 73.4 °F 94% 29.89 in 6.2 mi Calm Calm - N/A   Scattered Clouds
7:00 AM 80.6 °F 86.2 °F 75.2 °F 84% 29.92 in - ENE 3.5 mph - N/A   Clear
8:00 AM 82 °F - 75 °F 75% 29.91 in 12 mi ENE 5.8 mph - -   Scattered Clouds
8:00 AM 82.4 °F 89.5 °F 75.2 °F 79% 29.95 in 6.2 mi ENE 5.8 mph - N/A   Scattered Clouds
9:00 AM 87.8 °F 97.6 °F 75.2 °F 66% 29.95 in 6.2 mi NE 4.6 mph - N/A   Partly Cloudy
10:00 AM 91.4 °F 102.5 °F 75.2 °F 59% 29.95 in 6.2 mi NE 3.5 mph - N/A   Partly Cloudy
11:00 AM 89.6 °F 99.8 °F 75.2 °F 62% 29.95 in 6.2 mi NNE 8.1 mph - N/A   Scattered Clouds
12:00 PM 91.4 °F 100.1 °F 73.4 °F 55% 29.92 in 6.2 mi North 5.8 mph - N/A   Scattered Clouds
1:00 PM 91.4 °F 100.1 °F 73.4 °F 55% 29.86 in 6.2 mi North 3.5 mph - N/A   Partly Cloudy
2:00 PM 92 °F - 75 °F 49% 29.77 in 12 mi North 3.5 mph - -   Partly Cloudy
2:00 PM 91.4 °F 102.5 °F 75.2 °F 59% 29.80 in 6.2 mi North 3.5 mph - N/A   Partly Cloudy
3:00 PM 93.2 °F 105.0 °F 75.2 °F 56% 29.77 in 6.2 mi NNW 4.6 mph - N/A   Partly Cloudy
4:00 PM 87.8 °F 97.6 °F 75.2 °F 66% 29.77 in 6.2 mi ENE 4.6 mph - N/A   Partly Cloudy
5:00 PM 84.2 °F 96.1 °F 78.8 °F 84% 29.77 in 6.2 mi ENE 3.5 mph - N/A Rain Rain Showers
6:00 PM 82.4 °F 90.9 °F 77.0 °F 84% 29.80 in 6.2 mi ESE 3.5 mph - N/A   Partly Cloudy
7:00 PM 80.6 °F 87.1 °F 77.0 °F 89% 29.83 in 6.2 mi SW 1.2 mph - N/A Thunderstorm Partly Cloudy
8:00 PM 79 °F - 77 °F 92% 29.84 in 12 mi Calm Calm - -   Scattered Clouds
8:00 PM 78.8 °F - 77.0 °F 94% 29.86 in 6.2 mi Calm Calm - N/A Thunderstorm Partly Cloudy
9:00 PM 78.8 °F - 77.0 °F 94% 29.89 in 6.2 mi Calm Calm - N/A Thunderstorm Partly Cloudy
10:00 PM 78.8 °F - 75.2 °F 89% 29.92 in 6.2 mi West 3.5 mph - N/A   Scattered Clouds
11:00 PM 77.0 °F - 75.2 °F 94% 30.21 in 6.2 mi West 2.3 mph - N/A   Scattered Clouds